Index of /20260428/WXO-DD/model_rdps/10km/18/031
Name Last modified Size Description
Parent Directory -
20260428T18Z_MSC_RDPS_AbsoluteVorticity_IsbL-0250_RLatLon0.09_PT031H.grib2 2026-04-28 20:49 652K
20260428T18Z_MSC_RDPS_AbsoluteVorticity_IsbL-0500_RLatLon0.09_PT031H.grib2 2026-04-28 20:49 581K
20260428T18Z_MSC_RDPS_AbsoluteVorticity_IsbL-0700_RLatLon0.09_PT031H.grib2 2026-04-28 20:49 627K
20260428T18Z_MSC_RDPS_AbsoluteVorticity_IsbL-0850_RLatLon0.09_PT031H.grib2 2026-04-28 20:49 768K
20260428T18Z_MSC_RDPS_AirTemp_AGL-120m_RLatLon0.09_PT031H.grib2 2026-04-28 20:49 381K
20260428T18Z_MSC_RDPS_AirTemp_AGL-2m_RLatLon0.09_PT031H.grib2 2026-04-28 20:49 614K
20260428T18Z_MSC_RDPS_AirTemp_AGL-40m_RLatLon0.09_PT031H.grib2 2026-04-28 20:49 392K
20260428T18Z_MSC_RDPS_AirTemp_AGL-80m_RLatLon0.09_PT031H.grib2 2026-04-28 20:49 385K
20260428T18Z_MSC_RDPS_AirTemp_IsbL-0001_RLatLon0.09_PT031H.grib2 2026-04-28 20:49 304K
20260428T18Z_MSC_RDPS_AirTemp_IsbL-0005_RLatLon0.09_PT031H.grib2 2026-04-28 20:49 292K
20260428T18Z_MSC_RDPS_AirTemp_IsbL-0010_RLatLon0.09_PT031H.grib2 2026-04-28 20:49 304K
20260428T18Z_MSC_RDPS_AirTemp_IsbL-0020_RLatLon0.09_PT031H.grib2 2026-04-28 20:49 317K
20260428T18Z_MSC_RDPS_AirTemp_IsbL-0030_RLatLon0.09_PT031H.grib2 2026-04-28 20:49 341K
20260428T18Z_MSC_RDPS_AirTemp_IsbL-0050_RLatLon0.09_PT031H.grib2 2026-04-28 20:49 315K
20260428T18Z_MSC_RDPS_AirTemp_IsbL-0100_RLatLon0.09_PT031H.grib2 2026-04-28 20:49 433K
20260428T18Z_MSC_RDPS_AirTemp_IsbL-0150_RLatLon0.09_PT031H.grib2 2026-04-28 20:49 434K
20260428T18Z_MSC_RDPS_AirTemp_IsbL-0175_RLatLon0.09_PT031H.grib2 2026-04-28 20:49 421K
20260428T18Z_MSC_RDPS_AirTemp_IsbL-0200_RLatLon0.09_PT031H.grib2 2026-04-28 20:49 426K
20260428T18Z_MSC_RDPS_AirTemp_IsbL-0225_RLatLon0.09_PT031H.grib2 2026-04-28 20:49 427K
20260428T18Z_MSC_RDPS_AirTemp_IsbL-0250_RLatLon0.09_PT031H.grib2 2026-04-28 20:49 439K
20260428T18Z_MSC_RDPS_AirTemp_IsbL-0275_RLatLon0.09_PT031H.grib2 2026-04-28 20:49 416K
20260428T18Z_MSC_RDPS_AirTemp_IsbL-0300_RLatLon0.09_PT031H.grib2 2026-04-28 20:49 422K
20260428T18Z_MSC_RDPS_AirTemp_IsbL-0350_RLatLon0.09_PT031H.grib2 2026-04-28 20:49 434K
20260428T18Z_MSC_RDPS_AirTemp_IsbL-0400_RLatLon0.09_PT031H.grib2 2026-04-28 20:49 433K
20260428T18Z_MSC_RDPS_AirTemp_IsbL-0450_RLatLon0.09_PT031H.grib2 2026-04-28 20:49 405K
20260428T18Z_MSC_RDPS_AirTemp_IsbL-0500_RLatLon0.09_PT031H.grib2 2026-04-28 20:49 417K
20260428T18Z_MSC_RDPS_AirTemp_IsbL-0550_RLatLon0.09_PT031H.grib2 2026-04-28 20:49 435K
20260428T18Z_MSC_RDPS_AirTemp_IsbL-0600_RLatLon0.09_PT031H.grib2 2026-04-28 20:49 453K
20260428T18Z_MSC_RDPS_AirTemp_IsbL-0650_RLatLon0.09_PT031H.grib2 2026-04-28 20:49 467K
20260428T18Z_MSC_RDPS_AirTemp_IsbL-0700_RLatLon0.09_PT031H.grib2 2026-04-28 20:49 383K
20260428T18Z_MSC_RDPS_AirTemp_IsbL-0750_RLatLon0.09_PT031H.grib2 2026-04-28 20:49 411K
20260428T18Z_MSC_RDPS_AirTemp_IsbL-0800_RLatLon0.09_PT031H.grib2 2026-04-28 20:49 446K
20260428T18Z_MSC_RDPS_AirTemp_IsbL-0850_RLatLon0.09_PT031H.grib2 2026-04-28 20:49 489K
20260428T18Z_MSC_RDPS_AirTemp_IsbL-0875_RLatLon0.09_PT031H.grib2 2026-04-28 20:49 507K
20260428T18Z_MSC_RDPS_AirTemp_IsbL-0900_RLatLon0.09_PT031H.grib2 2026-04-28 20:49 517K
20260428T18Z_MSC_RDPS_AirTemp_IsbL-0925_RLatLon0.09_PT031H.grib2 2026-04-28 20:49 515K
20260428T18Z_MSC_RDPS_AirTemp_IsbL-0950_RLatLon0.09_PT031H.grib2 2026-04-28 20:49 515K
20260428T18Z_MSC_RDPS_AirTemp_IsbL-0970_RLatLon0.09_PT031H.grib2 2026-04-28 20:49 507K
20260428T18Z_MSC_RDPS_AirTemp_IsbL-0985_RLatLon0.09_PT031H.grib2 2026-04-28 20:49 497K
20260428T18Z_MSC_RDPS_AirTemp_IsbL-1000_RLatLon0.09_PT031H.grib2 2026-04-28 20:49 483K
20260428T18Z_MSC_RDPS_AirTemp_IsbL-1015_RLatLon0.09_PT031H.grib2 2026-04-28 20:49 494K
20260428T18Z_MSC_RDPS_Albedo_Sfc_RLatLon0.09_PT031H.grib2 2026-04-28 20:49 160K
20260428T18Z_MSC_RDPS_CAPE_Sfc_RLatLon0.09_PT031H.grib2 2026-04-28 20:49 1.7M
20260428T18Z_MSC_RDPS_CIN_Sfc_RLatLon0.09_PT031H.grib2 2026-04-28 20:49 1.2M
20260428T18Z_MSC_RDPS_CloudWater_EAtm_RLatLon0.09_PT031H.grib2 2026-04-28 20:49 221K
20260428T18Z_MSC_RDPS_ConvectivePrecip-Accum_Sfc_RLatLon0.09_PT031H.grib2 2026-04-28 20:49 903K
20260428T18Z_MSC_RDPS_DewPointDepression_AGL-2m_RLatLon0.09_PT031H.grib2 2026-04-28 20:49 403K
20260428T18Z_MSC_RDPS_DewPointDepression_IsbL-0001_RLatLon0.09_PT031H.grib2 2026-04-28 20:49 193
20260428T18Z_MSC_RDPS_DewPointDepression_IsbL-0005_RLatLon0.09_PT031H.grib2 2026-04-28 20:49 193
20260428T18Z_MSC_RDPS_DewPointDepression_IsbL-0010_RLatLon0.09_PT031H.grib2 2026-04-28 20:49 193
20260428T18Z_MSC_RDPS_DewPointDepression_IsbL-0020_RLatLon0.09_PT031H.grib2 2026-04-28 20:49 193
20260428T18Z_MSC_RDPS_DewPointDepression_IsbL-0030_RLatLon0.09_PT031H.grib2 2026-04-28 20:49 193
20260428T18Z_MSC_RDPS_DewPointDepression_IsbL-0050_RLatLon0.09_PT031H.grib2 2026-04-28 20:49 92K
20260428T18Z_MSC_RDPS_DewPointDepression_IsbL-0100_RLatLon0.09_PT031H.grib2 2026-04-28 20:49 134K
20260428T18Z_MSC_RDPS_DewPointDepression_IsbL-0150_RLatLon0.09_PT031H.grib2 2026-04-28 20:49 155K
20260428T18Z_MSC_RDPS_DewPointDepression_IsbL-0175_RLatLon0.09_PT031H.grib2 2026-04-28 20:49 185K
20260428T18Z_MSC_RDPS_DewPointDepression_IsbL-0200_RLatLon0.09_PT031H.grib2 2026-04-28 20:49 225K
20260428T18Z_MSC_RDPS_DewPointDepression_IsbL-0225_RLatLon0.09_PT031H.grib2 2026-04-28 20:49 272K
20260428T18Z_MSC_RDPS_DewPointDepression_IsbL-0250_RLatLon0.09_PT031H.grib2 2026-04-28 20:49 312K
20260428T18Z_MSC_RDPS_DewPointDepression_IsbL-0275_RLatLon0.09_PT031H.grib2 2026-04-28 20:49 318K
20260428T18Z_MSC_RDPS_DewPointDepression_IsbL-0300_RLatLon0.09_PT031H.grib2 2026-04-28 20:49 338K
20260428T18Z_MSC_RDPS_DewPointDepression_IsbL-0350_RLatLon0.09_PT031H.grib2 2026-04-28 20:49 340K
20260428T18Z_MSC_RDPS_DewPointDepression_IsbL-0400_RLatLon0.09_PT031H.grib2 2026-04-28 20:49 346K
20260428T18Z_MSC_RDPS_DewPointDepression_IsbL-0450_RLatLon0.09_PT031H.grib2 2026-04-28 20:49 352K
20260428T18Z_MSC_RDPS_DewPointDepression_IsbL-0500_RLatLon0.09_PT031H.grib2 2026-04-28 20:49 360K
20260428T18Z_MSC_RDPS_DewPointDepression_IsbL-0550_RLatLon0.09_PT031H.grib2 2026-04-28 20:49 375K
20260428T18Z_MSC_RDPS_DewPointDepression_IsbL-0600_RLatLon0.09_PT031H.grib2 2026-04-28 20:49 388K
20260428T18Z_MSC_RDPS_DewPointDepression_IsbL-0650_RLatLon0.09_PT031H.grib2 2026-04-28 20:49 394K
20260428T18Z_MSC_RDPS_DewPointDepression_IsbL-0700_RLatLon0.09_PT031H.grib2 2026-04-28 20:49 401K
20260428T18Z_MSC_RDPS_DewPointDepression_IsbL-0750_RLatLon0.09_PT031H.grib2 2026-04-28 20:49 420K
20260428T18Z_MSC_RDPS_DewPointDepression_IsbL-0800_RLatLon0.09_PT031H.grib2 2026-04-28 20:49 443K
20260428T18Z_MSC_RDPS_DewPointDepression_IsbL-0850_RLatLon0.09_PT031H.grib2 2026-04-28 20:49 464K
20260428T18Z_MSC_RDPS_DewPointDepression_IsbL-0875_RLatLon0.09_PT031H.grib2 2026-04-28 20:49 466K
20260428T18Z_MSC_RDPS_DewPointDepression_IsbL-0900_RLatLon0.09_PT031H.grib2 2026-04-28 20:49 460K
20260428T18Z_MSC_RDPS_DewPointDepression_IsbL-0925_RLatLon0.09_PT031H.grib2 2026-04-28 20:49 448K
20260428T18Z_MSC_RDPS_DewPointDepression_IsbL-0950_RLatLon0.09_PT031H.grib2 2026-04-28 20:49 440K
20260428T18Z_MSC_RDPS_DewPointDepression_IsbL-0970_RLatLon0.09_PT031H.grib2 2026-04-28 20:49 429K
20260428T18Z_MSC_RDPS_DewPointDepression_IsbL-0985_RLatLon0.09_PT031H.grib2 2026-04-28 20:49 421K
20260428T18Z_MSC_RDPS_DewPointDepression_IsbL-1000_RLatLon0.09_PT031H.grib2 2026-04-28 20:49 415K
20260428T18Z_MSC_RDPS_DewPointDepression_IsbL-1015_RLatLon0.09_PT031H.grib2 2026-04-28 20:49 404K
20260428T18Z_MSC_RDPS_DewPoint_AGL-2m_RLatLon0.09_PT031H.grib2 2026-04-28 20:49 304K
20260428T18Z_MSC_RDPS_DownwardLongwaveRadiationFlux-Accum_Sfc_RLatLon0.09_PT031H.grib2 2026-04-28 20:49 475K
20260428T18Z_MSC_RDPS_DownwardShortwaveRadiationFlux-Accum_NTAtm_RLatLon0.09_PT031H.grib2 2026-04-28 20:49 149K
20260428T18Z_MSC_RDPS_DownwardShortwaveRadiationFlux-Accum_Sfc_RLatLon0.09_PT031H.grib2 2026-04-28 20:49 548K
20260428T18Z_MSC_RDPS_FreezingRain-Accum1h_Sfc_RLatLon0.09_PT031H.grib2 2026-04-28 20:49 15K
20260428T18Z_MSC_RDPS_FreezingRain-Accum_Sfc_RLatLon0.09_PT031H.grib2 2026-04-28 20:49 123K
20260428T18Z_MSC_RDPS_GeopotentialHeight_IsbL-0001_RLatLon0.09_PT031H.grib2 2026-04-28 20:49 239K
20260428T18Z_MSC_RDPS_GeopotentialHeight_IsbL-0005_RLatLon0.09_PT031H.grib2 2026-04-28 20:49 336K
20260428T18Z_MSC_RDPS_GeopotentialHeight_IsbL-0010_RLatLon0.09_PT031H.grib2 2026-04-28 20:49 337K
20260428T18Z_MSC_RDPS_GeopotentialHeight_IsbL-0020_RLatLon0.09_PT031H.grib2 2026-04-28 20:49 302K
20260428T18Z_MSC_RDPS_GeopotentialHeight_IsbL-0030_RLatLon0.09_PT031H.grib2 2026-04-28 20:49 304K
20260428T18Z_MSC_RDPS_GeopotentialHeight_IsbL-0050_RLatLon0.09_PT031H.grib2 2026-04-28 20:49 339K
20260428T18Z_MSC_RDPS_GeopotentialHeight_IsbL-0100_RLatLon0.09_PT031H.grib2 2026-04-28 20:49 286K
20260428T18Z_MSC_RDPS_GeopotentialHeight_IsbL-0150_RLatLon0.09_PT031H.grib2 2026-04-28 20:49 231K
20260428T18Z_MSC_RDPS_GeopotentialHeight_IsbL-0175_RLatLon0.09_PT031H.grib2 2026-04-28 20:49 265K
20260428T18Z_MSC_RDPS_GeopotentialHeight_IsbL-0200_RLatLon0.09_PT031H.grib2 2026-04-28 20:49 267K
20260428T18Z_MSC_RDPS_GeopotentialHeight_IsbL-0225_RLatLon0.09_PT031H.grib2 2026-04-28 20:49 268K
20260428T18Z_MSC_RDPS_GeopotentialHeight_IsbL-0250_RLatLon0.09_PT031H.grib2 2026-04-28 20:49 269K
20260428T18Z_MSC_RDPS_GeopotentialHeight_IsbL-0275_RLatLon0.09_PT031H.grib2 2026-04-28 20:49 269K
20260428T18Z_MSC_RDPS_GeopotentialHeight_IsbL-0300_RLatLon0.09_PT031H.grib2 2026-04-28 20:49 268K
20260428T18Z_MSC_RDPS_GeopotentialHeight_IsbL-0350_RLatLon0.09_PT031H.grib2 2026-04-28 20:49 233K
20260428T18Z_MSC_RDPS_GeopotentialHeight_IsbL-0400_RLatLon0.09_PT031H.grib2 2026-04-28 20:49 230K
20260428T18Z_MSC_RDPS_GeopotentialHeight_IsbL-0450_RLatLon0.09_PT031H.grib2 2026-04-28 20:49 299K
20260428T18Z_MSC_RDPS_GeopotentialHeight_IsbL-0500_RLatLon0.09_PT031H.grib2 2026-04-28 20:49 294K
20260428T18Z_MSC_RDPS_GeopotentialHeight_IsbL-0550_RLatLon0.09_PT031H.grib2 2026-04-28 20:49 290K
20260428T18Z_MSC_RDPS_GeopotentialHeight_IsbL-0600_RLatLon0.09_PT031H.grib2 2026-04-28 20:49 287K
20260428T18Z_MSC_RDPS_GeopotentialHeight_IsbL-0650_RLatLon0.09_PT031H.grib2 2026-04-28 20:49 256K
20260428T18Z_MSC_RDPS_GeopotentialHeight_IsbL-0700_RLatLon0.09_PT031H.grib2 2026-04-28 20:49 335K
20260428T18Z_MSC_RDPS_GeopotentialHeight_IsbL-0750_RLatLon0.09_PT031H.grib2 2026-04-28 20:49 337K
20260428T18Z_MSC_RDPS_GeopotentialHeight_IsbL-0800_RLatLon0.09_PT031H.grib2 2026-04-28 20:49 342K
20260428T18Z_MSC_RDPS_GeopotentialHeight_IsbL-0850_RLatLon0.09_PT031H.grib2 2026-04-28 20:49 381K
20260428T18Z_MSC_RDPS_GeopotentialHeight_IsbL-0875_RLatLon0.09_PT031H.grib2 2026-04-28 20:49 385K
20260428T18Z_MSC_RDPS_GeopotentialHeight_IsbL-0900_RLatLon0.09_PT031H.grib2 2026-04-28 20:49 389K
20260428T18Z_MSC_RDPS_GeopotentialHeight_IsbL-0925_RLatLon0.09_PT031H.grib2 2026-04-28 20:49 392K
20260428T18Z_MSC_RDPS_GeopotentialHeight_IsbL-0950_RLatLon0.09_PT031H.grib2 2026-04-28 20:49 395K
20260428T18Z_MSC_RDPS_GeopotentialHeight_IsbL-0970_RLatLon0.09_PT031H.grib2 2026-04-28 20:49 400K
20260428T18Z_MSC_RDPS_GeopotentialHeight_IsbL-0985_RLatLon0.09_PT031H.grib2 2026-04-28 20:49 408K
20260428T18Z_MSC_RDPS_GeopotentialHeight_IsbL-1000_RLatLon0.09_PT031H.grib2 2026-04-28 20:49 420K
20260428T18Z_MSC_RDPS_GeopotentialHeight_IsbL-1015_RLatLon0.09_PT031H.grib2 2026-04-28 20:49 434K
20260428T18Z_MSC_RDPS_Humidex_Sfc_RLatLon0.09_PT031H.grib2 2026-04-28 20:49 2.4M
20260428T18Z_MSC_RDPS_IcePellets-Accum1h_Sfc_RLatLon0.09_PT031H.grib2 2026-04-28 20:49 1.8K
20260428T18Z_MSC_RDPS_IcePellets-Accum_Sfc_RLatLon0.09_PT031H.grib2 2026-04-28 20:49 18K
20260428T18Z_MSC_RDPS_KIndex_Sfc_RLatLon0.09_PT031H.grib2 2026-04-28 20:49 2.5M
20260428T18Z_MSC_RDPS_LatentHeatNetFlux_Sfc_RLatLon0.09_PT031H.grib2 2026-04-28 20:49 427K
20260428T18Z_MSC_RDPS_LiftedIndex-MU-VT_IsbL-0500_RLatLon0.09_PT031H.grib2 2026-04-28 20:49 2.4M
20260428T18Z_MSC_RDPS_NetLongwaveRadiationFlux-Accum_Sfc_RLatLon0.09_PT031H.grib2 2026-04-28 20:49 478K
20260428T18Z_MSC_RDPS_NetShortwaveRadiationFlux-Accum_Sfc_RLatLon0.09_PT031H.grib2 2026-04-28 20:49 548K
20260428T18Z_MSC_RDPS_PlanetaryBoundaryLayerHeight_Sfc_RLatLon0.09_PT031H.grib2 2026-04-28 20:49 1.0M
20260428T18Z_MSC_RDPS_Precip-Accum1h_Sfc_RLatLon0.09_PT031H.grib2 2026-04-28 20:49 1.0M
20260428T18Z_MSC_RDPS_Precip-Accum_Sfc_RLatLon0.09_PT031H.grib2 2026-04-28 20:49 1.9M
20260428T18Z_MSC_RDPS_PrecipRate_Sfc_RLatLon0.09_PT031H.grib2 2026-04-28 20:49 158K
20260428T18Z_MSC_RDPS_PrecipType-Instant_Sfc_RLatLon0.09_PT031H.grib2 2026-04-28 20:49 549K
20260428T18Z_MSC_RDPS_Pressure-Trend3h_Sfc_RLatLon0.09_PT031H.grib2 2026-04-28 20:49 1.2M
20260428T18Z_MSC_RDPS_Pressure_MSL_RLatLon0.09_PT031H.grib2 2026-04-28 20:49 323K
20260428T18Z_MSC_RDPS_Pressure_PVU-1.5_RLatLon0.09_PT031H.grib2 2026-04-28 20:49 2.5M
20260428T18Z_MSC_RDPS_Pressure_PVU-1_RLatLon0.09_PT031H.grib2 2026-04-28 20:49 2.4M
20260428T18Z_MSC_RDPS_Pressure_PVU-2_RLatLon0.09_PT031H.grib2 2026-04-28 20:49 2.4M
20260428T18Z_MSC_RDPS_Pressure_Sfc_RLatLon0.09_PT031H.grib2 2026-04-28 20:49 499K
20260428T18Z_MSC_RDPS_RadiativeTemp_Sfc_RLatLon0.09_PT031H.grib2 2026-04-28 20:49 304K
20260428T18Z_MSC_RDPS_Rain-Accum1h_Sfc_RLatLon0.09_PT031H.grib2 2026-04-28 20:49 478K
20260428T18Z_MSC_RDPS_Rain-Accum_Sfc_RLatLon0.09_PT031H.grib2 2026-04-28 20:49 1.4M
20260428T18Z_MSC_RDPS_RelativeHumidity_AGL-2m_RLatLon0.09_PT031H.grib2 2026-04-28 20:49 1.0M
20260428T18Z_MSC_RDPS_RelativeHumidity_IsbL-0010_RLatLon0.09_PT031H.grib2 2026-04-28 20:49 636K
20260428T18Z_MSC_RDPS_RelativeHumidity_IsbL-0020_RLatLon0.09_PT031H.grib2 2026-04-28 20:49 682K
20260428T18Z_MSC_RDPS_RelativeHumidity_IsbL-0030_RLatLon0.09_PT031H.grib2 2026-04-28 20:49 607K
20260428T18Z_MSC_RDPS_RelativeHumidity_IsbL-0050_RLatLon0.09_PT031H.grib2 2026-04-28 20:49 270K
20260428T18Z_MSC_RDPS_RelativeHumidity_IsbL-0100_RLatLon0.09_PT031H.grib2 2026-04-28 20:49 289K
20260428T18Z_MSC_RDPS_RelativeHumidity_IsbL-0150_RLatLon0.09_PT031H.grib2 2026-04-28 20:49 423K
20260428T18Z_MSC_RDPS_RelativeHumidity_IsbL-0175_RLatLon0.09_PT031H.grib2 2026-04-28 20:49 496K
20260428T18Z_MSC_RDPS_RelativeHumidity_IsbL-0200_RLatLon0.09_PT031H.grib2 2026-04-28 20:49 568K
20260428T18Z_MSC_RDPS_RelativeHumidity_IsbL-0225_RLatLon0.09_PT031H.grib2 2026-04-28 20:49 639K
20260428T18Z_MSC_RDPS_RelativeHumidity_IsbL-0250_RLatLon0.09_PT031H.grib2 2026-04-28 20:49 713K
20260428T18Z_MSC_RDPS_RelativeHumidity_IsbL-0275_RLatLon0.09_PT031H.grib2 2026-04-28 20:49 740K
20260428T18Z_MSC_RDPS_RelativeHumidity_IsbL-0300_RLatLon0.09_PT031H.grib2 2026-04-28 20:49 786K
20260428T18Z_MSC_RDPS_RelativeHumidity_IsbL-0350_RLatLon0.09_PT031H.grib2 2026-04-28 20:49 800K
20260428T18Z_MSC_RDPS_RelativeHumidity_IsbL-0400_RLatLon0.09_PT031H.grib2 2026-04-28 20:49 807K
20260428T18Z_MSC_RDPS_RelativeHumidity_IsbL-0450_RLatLon0.09_PT031H.grib2 2026-04-28 20:49 811K
20260428T18Z_MSC_RDPS_RelativeHumidity_IsbL-0500_RLatLon0.09_PT031H.grib2 2026-04-28 20:49 818K
20260428T18Z_MSC_RDPS_RelativeHumidity_IsbL-0550_RLatLon0.09_PT031H.grib2 2026-04-28 20:49 847K
20260428T18Z_MSC_RDPS_RelativeHumidity_IsbL-0600_RLatLon0.09_PT031H.grib2 2026-04-28 20:49 859K
20260428T18Z_MSC_RDPS_RelativeHumidity_IsbL-0650_RLatLon0.09_PT031H.grib2 2026-04-28 20:49 868K
20260428T18Z_MSC_RDPS_RelativeHumidity_IsbL-0700_RLatLon0.09_PT031H.grib2 2026-04-28 20:49 889K
20260428T18Z_MSC_RDPS_RelativeHumidity_IsbL-0750_RLatLon0.09_PT031H.grib2 2026-04-28 20:49 929K
20260428T18Z_MSC_RDPS_RelativeHumidity_IsbL-0800_RLatLon0.09_PT031H.grib2 2026-04-28 20:49 1.0M
20260428T18Z_MSC_RDPS_RelativeHumidity_IsbL-0850_RLatLon0.09_PT031H.grib2 2026-04-28 20:49 1.0M
20260428T18Z_MSC_RDPS_RelativeHumidity_IsbL-0875_RLatLon0.09_PT031H.grib2 2026-04-28 20:49 1.0M
20260428T18Z_MSC_RDPS_RelativeHumidity_IsbL-0900_RLatLon0.09_PT031H.grib2 2026-04-28 20:49 1.0M
20260428T18Z_MSC_RDPS_RelativeHumidity_IsbL-0925_RLatLon0.09_PT031H.grib2 2026-04-28 20:49 1.0M
20260428T18Z_MSC_RDPS_RelativeHumidity_IsbL-0950_RLatLon0.09_PT031H.grib2 2026-04-28 20:49 1.0M
20260428T18Z_MSC_RDPS_RelativeHumidity_IsbL-0970_RLatLon0.09_PT031H.grib2 2026-04-28 20:49 1.0M
20260428T18Z_MSC_RDPS_RelativeHumidity_IsbL-0985_RLatLon0.09_PT031H.grib2 2026-04-28 20:49 1.0M
20260428T18Z_MSC_RDPS_RelativeHumidity_IsbL-1000_RLatLon0.09_PT031H.grib2 2026-04-28 20:49 1.0M
20260428T18Z_MSC_RDPS_RelativeHumidity_IsbL-1015_RLatLon0.09_PT031H.grib2 2026-04-28 20:49 1.0M
20260428T18Z_MSC_RDPS_Runoff-Accum_Sfc_RLatLon0.09_PT031H.grib2 2026-04-28 20:49 59K
20260428T18Z_MSC_RDPS_SWEATIndex_Sfc_RLatLon0.09_PT031H.grib2 2026-04-28 20:49 2.4M
20260428T18Z_MSC_RDPS_SeeingIndex_EAtm_RLatLon0.09_PT031H.grib2 2026-04-28 20:49 1.0M
20260428T18Z_MSC_RDPS_SensibleHeatNetFlux_Sfc_RLatLon0.09_PT031H.grib2 2026-04-28 20:49 296K
20260428T18Z_MSC_RDPS_ShowalterIndex_IsbL-0500_RLatLon0.09_PT031H.grib2 2026-04-28 20:49 2.6M
20260428T18Z_MSC_RDPS_SkyTransparencyIndex_EAtm_RLatLon0.09_PT031H.grib2 2026-04-28 20:49 672K
20260428T18Z_MSC_RDPS_Snow-Accum1h_Sfc_RLatLon0.09_PT031H.grib2 2026-04-28 20:49 461K
20260428T18Z_MSC_RDPS_Snow-Accum_Sfc_RLatLon0.09_PT031H.grib2 2026-04-28 20:49 745K
20260428T18Z_MSC_RDPS_SnowDensity_Sfc_RLatLon0.09_PT031H.grib2 2026-04-28 20:49 179K
20260428T18Z_MSC_RDPS_SnowDepth_Sfc_RLatLon0.09_PT031H.grib2 2026-04-28 20:49 685K
20260428T18Z_MSC_RDPS_SoilTemp_DBS-0to10cm_RLatLon0.09_PT031H.grib2 2026-04-28 20:49 232K
20260428T18Z_MSC_RDPS_SoilTemp_Sfc_RLatLon0.09_PT031H.grib2 2026-04-28 20:49 283K
20260428T18Z_MSC_RDPS_SoilVolumetricIceContent_Sfc_RLatLon0.09_PT031H.grib2 2026-04-28 20:49 164K
20260428T18Z_MSC_RDPS_SoilVolumetricWaterContent_DBS-0to10cm_RLatLon0.09_PT031H.grib2 2026-04-28 20:49 266K
20260428T18Z_MSC_RDPS_SoilVolumetricWaterContent_DBS-0to1cm_RLatLon0.09_PT031H.grib2 2026-04-28 20:49 334K
20260428T18Z_MSC_RDPS_SpecificHumidity_AGL-120m_RLatLon0.09_PT031H.grib2 2026-04-28 20:49 478K
20260428T18Z_MSC_RDPS_SpecificHumidity_AGL-2m_RLatLon0.09_PT031H.grib2 2026-04-28 20:49 645K
20260428T18Z_MSC_RDPS_SpecificHumidity_AGL-40m_RLatLon0.09_PT031H.grib2 2026-04-28 20:49 484K
20260428T18Z_MSC_RDPS_SpecificHumidity_AGL-80m_RLatLon0.09_PT031H.grib2 2026-04-28 20:49 479K
20260428T18Z_MSC_RDPS_SpecificHumidity_IsbL-0001_RLatLon0.09_PT031H.grib2 2026-04-28 20:49 389K
20260428T18Z_MSC_RDPS_SpecificHumidity_IsbL-0005_RLatLon0.09_PT031H.grib2 2026-04-28 20:49 359K
20260428T18Z_MSC_RDPS_SpecificHumidity_IsbL-0010_RLatLon0.09_PT031H.grib2 2026-04-28 20:49 396K
20260428T18Z_MSC_RDPS_SpecificHumidity_IsbL-0020_RLatLon0.09_PT031H.grib2 2026-04-28 20:49 387K
20260428T18Z_MSC_RDPS_SpecificHumidity_IsbL-0030_RLatLon0.09_PT031H.grib2 2026-04-28 20:49 372K
20260428T18Z_MSC_RDPS_SpecificHumidity_IsbL-0050_RLatLon0.09_PT031H.grib2 2026-04-28 20:49 461K
20260428T18Z_MSC_RDPS_SpecificHumidity_IsbL-0100_RLatLon0.09_PT031H.grib2 2026-04-28 20:49 388K
20260428T18Z_MSC_RDPS_SpecificHumidity_IsbL-0150_RLatLon0.09_PT031H.grib2 2026-04-28 20:49 492K
20260428T18Z_MSC_RDPS_SpecificHumidity_IsbL-0175_RLatLon0.09_PT031H.grib2 2026-04-28 20:49 452K
20260428T18Z_MSC_RDPS_SpecificHumidity_IsbL-0200_RLatLon0.09_PT031H.grib2 2026-04-28 20:49 482K
20260428T18Z_MSC_RDPS_SpecificHumidity_IsbL-0225_RLatLon0.09_PT031H.grib2 2026-04-28 20:49 471K
20260428T18Z_MSC_RDPS_SpecificHumidity_IsbL-0250_RLatLon0.09_PT031H.grib2 2026-04-28 20:49 534K
20260428T18Z_MSC_RDPS_SpecificHumidity_IsbL-0275_RLatLon0.09_PT031H.grib2 2026-04-28 20:49 492K
20260428T18Z_MSC_RDPS_SpecificHumidity_IsbL-0300_RLatLon0.09_PT031H.grib2 2026-04-28 20:49 593K
20260428T18Z_MSC_RDPS_SpecificHumidity_IsbL-0350_RLatLon0.09_PT031H.grib2 2026-04-28 20:49 581K
20260428T18Z_MSC_RDPS_SpecificHumidity_IsbL-0400_RLatLon0.09_PT031H.grib2 2026-04-28 20:49 532K
20260428T18Z_MSC_RDPS_SpecificHumidity_IsbL-0450_RLatLon0.09_PT031H.grib2 2026-04-28 20:49 584K
20260428T18Z_MSC_RDPS_SpecificHumidity_IsbL-0500_RLatLon0.09_PT031H.grib2 2026-04-28 20:49 521K
20260428T18Z_MSC_RDPS_SpecificHumidity_IsbL-0550_RLatLon0.09_PT031H.grib2 2026-04-28 20:49 597K
20260428T18Z_MSC_RDPS_SpecificHumidity_IsbL-0600_RLatLon0.09_PT031H.grib2 2026-04-28 20:49 652K
20260428T18Z_MSC_RDPS_SpecificHumidity_IsbL-0650_RLatLon0.09_PT031H.grib2 2026-04-28 20:49 568K
20260428T18Z_MSC_RDPS_SpecificHumidity_IsbL-0700_RLatLon0.09_PT031H.grib2 2026-04-28 20:49 609K
20260428T18Z_MSC_RDPS_SpecificHumidity_IsbL-0750_RLatLon0.09_PT031H.grib2 2026-04-28 20:49 673K
20260428T18Z_MSC_RDPS_SpecificHumidity_IsbL-0800_RLatLon0.09_PT031H.grib2 2026-04-28 20:49 731K
20260428T18Z_MSC_RDPS_SpecificHumidity_IsbL-0850_RLatLon0.09_PT031H.grib2 2026-04-28 20:49 794K
20260428T18Z_MSC_RDPS_SpecificHumidity_IsbL-0875_RLatLon0.09_PT031H.grib2 2026-04-28 20:49 820K
20260428T18Z_MSC_RDPS_SpecificHumidity_IsbL-0900_RLatLon0.09_PT031H.grib2 2026-04-28 20:49 834K
20260428T18Z_MSC_RDPS_SpecificHumidity_IsbL-0925_RLatLon0.09_PT031H.grib2 2026-04-28 20:49 838K
20260428T18Z_MSC_RDPS_SpecificHumidity_IsbL-0950_RLatLon0.09_PT031H.grib2 2026-04-28 20:49 699K
20260428T18Z_MSC_RDPS_SpecificHumidity_IsbL-0970_RLatLon0.09_PT031H.grib2 2026-04-28 20:49 687K
20260428T18Z_MSC_RDPS_SpecificHumidity_IsbL-0985_RLatLon0.09_PT031H.grib2 2026-04-28 20:49 675K
20260428T18Z_MSC_RDPS_SpecificHumidity_IsbL-1000_RLatLon0.09_PT031H.grib2 2026-04-28 20:49 665K
20260428T18Z_MSC_RDPS_SpecificHumidity_IsbL-1015_RLatLon0.09_PT031H.grib2 2026-04-28 20:49 655K
20260428T18Z_MSC_RDPS_SpecificHumidity_Sfc_RLatLon0.09_PT031H.grib2 2026-04-28 20:49 321K
20260428T18Z_MSC_RDPS_StormRelativeHelicity_EtaL-10000_RLatLon0.09_PT031H.grib2 2026-04-28 20:49 1.1M
20260428T18Z_MSC_RDPS_StormSeverityIndex_EtaL-10000_RLatLon0.09_PT031H.grib2 2026-04-28 20:49 1.2M
20260428T18Z_MSC_RDPS_Thickness_IsbL-0850to0700_RLatLon0.09_PT031H.grib2 2026-04-28 20:49 178K
20260428T18Z_MSC_RDPS_Thickness_IsbL-1000to0500_RLatLon0.09_PT031H.grib2 2026-04-28 20:49 201K
20260428T18Z_MSC_RDPS_Thickness_IsbL-1000to0850_RLatLon0.09_PT031H.grib2 2026-04-28 20:49 183K
20260428T18Z_MSC_RDPS_TotalCloudCover_Sfc_RLatLon0.09_PT031H.grib2 2026-04-28 20:49 642K
20260428T18Z_MSC_RDPS_TotalTotalsIndex_Sfc_RLatLon0.09_PT031H.grib2 2026-04-28 20:49 2.4M
20260428T18Z_MSC_RDPS_UVIndex-ClearSky_Sfc_RLatLon0.09_PT031H.grib2 2026-04-28 20:49 141K
20260428T18Z_MSC_RDPS_UVIndex_Sfc_RLatLon0.09_PT031H.grib2 2026-04-28 20:49 320K
20260428T18Z_MSC_RDPS_UpwardLongwaveRadiationFlux_NTAtm_RLatLon0.09_PT031H.grib2 2026-04-28 20:49 503K
20260428T18Z_MSC_RDPS_UpwardShortwaveRadiationFlux_NTAtm_RLatLon0.09_PT031H.grib2 2026-04-28 20:49 294K
20260428T18Z_MSC_RDPS_VerticalVelocity_IsbL-0250_RLatLon0.09_PT031H.grib2 2026-04-28 20:49 444K
20260428T18Z_MSC_RDPS_VerticalVelocity_IsbL-0500_RLatLon0.09_PT031H.grib2 2026-04-28 20:49 549K
20260428T18Z_MSC_RDPS_VerticalVelocity_IsbL-0700_RLatLon0.09_PT031H.grib2 2026-04-28 20:49 597K
20260428T18Z_MSC_RDPS_VerticalVelocity_IsbL-0850_RLatLon0.09_PT031H.grib2 2026-04-28 20:49 686K
20260428T18Z_MSC_RDPS_VerticalWindShear_EtaL-6500_RLatLon0.09_PT031H.grib2 2026-04-28 20:49 1.1M
20260428T18Z_MSC_RDPS_WindChill_Sfc_RLatLon0.09_PT031H.grib2 2026-04-28 20:49 1.1M
20260428T18Z_MSC_RDPS_WindDir_AGL-10m_RLatLon0.09_PT031H.grib2 2026-04-28 20:49 950K
20260428T18Z_MSC_RDPS_WindDir_AGL-120m_RLatLon0.09_PT031H.grib2 2026-04-28 20:49 599K
20260428T18Z_MSC_RDPS_WindDir_AGL-40m_RLatLon0.09_PT031H.grib2 2026-04-28 20:49 623K
20260428T18Z_MSC_RDPS_WindDir_AGL-80m_RLatLon0.09_PT031H.grib2 2026-04-28 20:49 608K
20260428T18Z_MSC_RDPS_WindDir_IsbL-0001_RLatLon0.09_PT031H.grib2 2026-04-28 20:49 318K
20260428T18Z_MSC_RDPS_WindDir_IsbL-0005_RLatLon0.09_PT031H.grib2 2026-04-28 20:49 363K
20260428T18Z_MSC_RDPS_WindDir_IsbL-0010_RLatLon0.09_PT031H.grib2 2026-04-28 20:49 398K
20260428T18Z_MSC_RDPS_WindDir_IsbL-0020_RLatLon0.09_PT031H.grib2 2026-04-28 20:49 405K
20260428T18Z_MSC_RDPS_WindDir_IsbL-0030_RLatLon0.09_PT031H.grib2 2026-04-28 20:49 422K
20260428T18Z_MSC_RDPS_WindDir_IsbL-0050_RLatLon0.09_PT031H.grib2 2026-04-28 20:49 424K
20260428T18Z_MSC_RDPS_WindDir_IsbL-0100_RLatLon0.09_PT031H.grib2 2026-04-28 20:49 442K
20260428T18Z_MSC_RDPS_WindDir_IsbL-0150_RLatLon0.09_PT031H.grib2 2026-04-28 20:49 430K
20260428T18Z_MSC_RDPS_WindDir_IsbL-0175_RLatLon0.09_PT031H.grib2 2026-04-28 20:49 452K
20260428T18Z_MSC_RDPS_WindDir_IsbL-0200_RLatLon0.09_PT031H.grib2 2026-04-28 20:49 463K
20260428T18Z_MSC_RDPS_WindDir_IsbL-0225_RLatLon0.09_PT031H.grib2 2026-04-28 20:49 467K
20260428T18Z_MSC_RDPS_WindDir_IsbL-0250_RLatLon0.09_PT031H.grib2 2026-04-28 20:49 469K
20260428T18Z_MSC_RDPS_WindDir_IsbL-0275_RLatLon0.09_PT031H.grib2 2026-04-28 20:49 490K
20260428T18Z_MSC_RDPS_WindDir_IsbL-0300_RLatLon0.09_PT031H.grib2 2026-04-28 20:49 484K
20260428T18Z_MSC_RDPS_WindDir_IsbL-0350_RLatLon0.09_PT031H.grib2 2026-04-28 20:49 506K
20260428T18Z_MSC_RDPS_WindDir_IsbL-0400_RLatLon0.09_PT031H.grib2 2026-04-28 20:49 523K
20260428T18Z_MSC_RDPS_WindDir_IsbL-0450_RLatLon0.09_PT031H.grib2 2026-04-28 20:49 536K
20260428T18Z_MSC_RDPS_WindDir_IsbL-0500_RLatLon0.09_PT031H.grib2 2026-04-28 20:49 557K
20260428T18Z_MSC_RDPS_WindDir_IsbL-0550_RLatLon0.09_PT031H.grib2 2026-04-28 20:49 575K
20260428T18Z_MSC_RDPS_WindDir_IsbL-0600_RLatLon0.09_PT031H.grib2 2026-04-28 20:49 604K
20260428T18Z_MSC_RDPS_WindDir_IsbL-0650_RLatLon0.09_PT031H.grib2 2026-04-28 20:49 647K
20260428T18Z_MSC_RDPS_WindDir_IsbL-0700_RLatLon0.09_PT031H.grib2 2026-04-28 20:49 688K
20260428T18Z_MSC_RDPS_WindDir_IsbL-0750_RLatLon0.09_PT031H.grib2 2026-04-28 20:49 736K
20260428T18Z_MSC_RDPS_WindDir_IsbL-0800_RLatLon0.09_PT031H.grib2 2026-04-28 20:49 797K
20260428T18Z_MSC_RDPS_WindDir_IsbL-0850_RLatLon0.09_PT031H.grib2 2026-04-28 20:49 859K
20260428T18Z_MSC_RDPS_WindDir_IsbL-0875_RLatLon0.09_PT031H.grib2 2026-04-28 20:49 882K
20260428T18Z_MSC_RDPS_WindDir_IsbL-0900_RLatLon0.09_PT031H.grib2 2026-04-28 20:49 896K
20260428T18Z_MSC_RDPS_WindDir_IsbL-0925_RLatLon0.09_PT031H.grib2 2026-04-28 20:49 903K
20260428T18Z_MSC_RDPS_WindDir_IsbL-0950_RLatLon0.09_PT031H.grib2 2026-04-28 20:49 901K
20260428T18Z_MSC_RDPS_WindDir_IsbL-0970_RLatLon0.09_PT031H.grib2 2026-04-28 20:49 908K
20260428T18Z_MSC_RDPS_WindDir_IsbL-0985_RLatLon0.09_PT031H.grib2 2026-04-28 20:49 916K
20260428T18Z_MSC_RDPS_WindDir_IsbL-1000_RLatLon0.09_PT031H.grib2 2026-04-28 20:49 927K
20260428T18Z_MSC_RDPS_WindDir_IsbL-1015_RLatLon0.09_PT031H.grib2 2026-04-28 20:49 944K
20260428T18Z_MSC_RDPS_WindGust-Max_AGL-10m_RLatLon0.09_PT031H.grib2 2026-04-28 20:49 1.0M
20260428T18Z_MSC_RDPS_WindGust-Min_AGL-10m_RLatLon0.09_PT031H.grib2 2026-04-28 20:49 967K
20260428T18Z_MSC_RDPS_WindGust_AGL-10m_RLatLon0.09_PT031H.grib2 2026-04-28 20:49 1.0M
20260428T18Z_MSC_RDPS_WindSpeed_AGL-10m_RLatLon0.09_PT031H.grib2 2026-04-28 20:49 825K
20260428T18Z_MSC_RDPS_WindSpeed_AGL-120m_RLatLon0.09_PT031H.grib2 2026-04-28 20:49 526K
20260428T18Z_MSC_RDPS_WindSpeed_AGL-40m_RLatLon0.09_PT031H.grib2 2026-04-28 20:49 530K
20260428T18Z_MSC_RDPS_WindSpeed_AGL-80m_RLatLon0.09_PT031H.grib2 2026-04-28 20:49 527K
20260428T18Z_MSC_RDPS_WindSpeed_IsbL-0001_RLatLon0.09_PT031H.grib2 2026-04-28 20:49 252K
20260428T18Z_MSC_RDPS_WindSpeed_IsbL-0005_RLatLon0.09_PT031H.grib2 2026-04-28 20:49 389K
20260428T18Z_MSC_RDPS_WindSpeed_IsbL-0010_RLatLon0.09_PT031H.grib2 2026-04-28 20:49 404K
20260428T18Z_MSC_RDPS_WindSpeed_IsbL-0020_RLatLon0.09_PT031H.grib2 2026-04-28 20:49 325K
20260428T18Z_MSC_RDPS_WindSpeed_IsbL-0030_RLatLon0.09_PT031H.grib2 2026-04-28 20:49 326K
20260428T18Z_MSC_RDPS_WindSpeed_IsbL-0050_RLatLon0.09_PT031H.grib2 2026-04-28 20:49 457K
20260428T18Z_MSC_RDPS_WindSpeed_IsbL-0100_RLatLon0.09_PT031H.grib2 2026-04-28 20:49 451K
20260428T18Z_MSC_RDPS_WindSpeed_IsbL-0150_RLatLon0.09_PT031H.grib2 2026-04-28 20:49 394K
20260428T18Z_MSC_RDPS_WindSpeed_IsbL-0175_RLatLon0.09_PT031H.grib2 2026-04-28 20:49 443K
20260428T18Z_MSC_RDPS_WindSpeed_IsbL-0200_RLatLon0.09_PT031H.grib2 2026-04-28 20:49 460K
20260428T18Z_MSC_RDPS_WindSpeed_IsbL-0225_RLatLon0.09_PT031H.grib2 2026-04-28 20:49 466K
20260428T18Z_MSC_RDPS_WindSpeed_IsbL-0250_RLatLon0.09_PT031H.grib2 2026-04-28 20:49 469K
20260428T18Z_MSC_RDPS_WindSpeed_IsbL-0275_RLatLon0.09_PT031H.grib2 2026-04-28 20:49 488K
20260428T18Z_MSC_RDPS_WindSpeed_IsbL-0300_RLatLon0.09_PT031H.grib2 2026-04-28 20:49 482K
20260428T18Z_MSC_RDPS_WindSpeed_IsbL-0350_RLatLon0.09_PT031H.grib2 2026-04-28 20:49 493K
20260428T18Z_MSC_RDPS_WindSpeed_IsbL-0400_RLatLon0.09_PT031H.grib2 2026-04-28 20:49 474K
20260428T18Z_MSC_RDPS_WindSpeed_IsbL-0450_RLatLon0.09_PT031H.grib2 2026-04-28 20:49 475K
20260428T18Z_MSC_RDPS_WindSpeed_IsbL-0500_RLatLon0.09_PT031H.grib2 2026-04-28 20:49 595K
20260428T18Z_MSC_RDPS_WindSpeed_IsbL-0550_RLatLon0.09_PT031H.grib2 2026-04-28 20:49 594K
20260428T18Z_MSC_RDPS_WindSpeed_IsbL-0600_RLatLon0.09_PT031H.grib2 2026-04-28 20:49 602K
20260428T18Z_MSC_RDPS_WindSpeed_IsbL-0650_RLatLon0.09_PT031H.grib2 2026-04-28 20:49 664K
20260428T18Z_MSC_RDPS_WindSpeed_IsbL-0700_RLatLon0.09_PT031H.grib2 2026-04-28 20:49 687K
20260428T18Z_MSC_RDPS_WindSpeed_IsbL-0750_RLatLon0.09_PT031H.grib2 2026-04-28 20:49 715K
20260428T18Z_MSC_RDPS_WindSpeed_IsbL-0800_RLatLon0.09_PT031H.grib2 2026-04-28 20:49 755K
20260428T18Z_MSC_RDPS_WindSpeed_IsbL-0850_RLatLon0.09_PT031H.grib2 2026-04-28 20:49 798K
20260428T18Z_MSC_RDPS_WindSpeed_IsbL-0875_RLatLon0.09_PT031H.grib2 2026-04-28 20:49 824K
20260428T18Z_MSC_RDPS_WindSpeed_IsbL-0900_RLatLon0.09_PT031H.grib2 2026-04-28 20:49 834K
20260428T18Z_MSC_RDPS_WindSpeed_IsbL-0925_RLatLon0.09_PT031H.grib2 2026-04-28 20:49 849K
20260428T18Z_MSC_RDPS_WindSpeed_IsbL-0950_RLatLon0.09_PT031H.grib2 2026-04-28 20:49 846K
20260428T18Z_MSC_RDPS_WindSpeed_IsbL-0970_RLatLon0.09_PT031H.grib2 2026-04-28 20:49 848K
20260428T18Z_MSC_RDPS_WindSpeed_IsbL-0985_RLatLon0.09_PT031H.grib2 2026-04-28 20:49 844K
20260428T18Z_MSC_RDPS_WindSpeed_IsbL-1000_RLatLon0.09_PT031H.grib2 2026-04-28 20:49 837K
20260428T18Z_MSC_RDPS_WindSpeed_IsbL-1015_RLatLon0.09_PT031H.grib2 2026-04-28 20:49 828K
20260428T18Z_MSC_RDPS_WindU_AGL-10m_RLatLon0.09_PT031H.grib2 2026-04-28 20:49 424K
20260428T18Z_MSC_RDPS_WindU_AGL-120m_RLatLon0.09_PT031H.grib2 2026-04-28 20:49 410K
20260428T18Z_MSC_RDPS_WindU_AGL-40m_RLatLon0.09_PT031H.grib2 2026-04-28 20:49 527K
20260428T18Z_MSC_RDPS_WindU_AGL-80m_RLatLon0.09_PT031H.grib2 2026-04-28 20:49 526K
20260428T18Z_MSC_RDPS_WindU_IsbL-0001_RLatLon0.09_PT031H.grib2 2026-04-28 20:49 292K
20260428T18Z_MSC_RDPS_WindU_IsbL-0005_RLatLon0.09_PT031H.grib2 2026-04-28 20:49 290K
20260428T18Z_MSC_RDPS_WindU_IsbL-0010_RLatLon0.09_PT031H.grib2 2026-04-28 20:49 301K
20260428T18Z_MSC_RDPS_WindU_IsbL-0020_RLatLon0.09_PT031H.grib2 2026-04-28 20:49 354K
20260428T18Z_MSC_RDPS_WindU_IsbL-0030_RLatLon0.09_PT031H.grib2 2026-04-28 20:49 316K
20260428T18Z_MSC_RDPS_WindU_IsbL-0050_RLatLon0.09_PT031H.grib2 2026-04-28 20:49 345K
20260428T18Z_MSC_RDPS_WindU_IsbL-0100_RLatLon0.09_PT031H.grib2 2026-04-28 20:49 345K
20260428T18Z_MSC_RDPS_WindU_IsbL-0150_RLatLon0.09_PT031H.grib2 2026-04-28 20:49 408K
20260428T18Z_MSC_RDPS_WindU_IsbL-0175_RLatLon0.09_PT031H.grib2 2026-04-28 20:49 434K
20260428T18Z_MSC_RDPS_WindU_IsbL-0200_RLatLon0.09_PT031H.grib2 2026-04-28 20:49 350K
20260428T18Z_MSC_RDPS_WindU_IsbL-0225_RLatLon0.09_PT031H.grib2 2026-04-28 20:49 457K
20260428T18Z_MSC_RDPS_WindU_IsbL-0250_RLatLon0.09_PT031H.grib2 2026-04-28 20:49 356K
20260428T18Z_MSC_RDPS_WindU_IsbL-0275_RLatLon0.09_PT031H.grib2 2026-04-28 20:49 371K
20260428T18Z_MSC_RDPS_WindU_IsbL-0300_RLatLon0.09_PT031H.grib2 2026-04-28 20:49 366K
20260428T18Z_MSC_RDPS_WindU_IsbL-0350_RLatLon0.09_PT031H.grib2 2026-04-28 20:49 374K
20260428T18Z_MSC_RDPS_WindU_IsbL-0400_RLatLon0.09_PT031H.grib2 2026-04-28 20:49 478K
20260428T18Z_MSC_RDPS_WindU_IsbL-0450_RLatLon0.09_PT031H.grib2 2026-04-28 20:49 478K
20260428T18Z_MSC_RDPS_WindU_IsbL-0500_RLatLon0.09_PT031H.grib2 2026-04-28 20:49 480K
20260428T18Z_MSC_RDPS_WindU_IsbL-0550_RLatLon0.09_PT031H.grib2 2026-04-28 20:49 464K
20260428T18Z_MSC_RDPS_WindU_IsbL-0600_RLatLon0.09_PT031H.grib2 2026-04-28 20:49 471K
20260428T18Z_MSC_RDPS_WindU_IsbL-0650_RLatLon0.09_PT031H.grib2 2026-04-28 20:49 488K
20260428T18Z_MSC_RDPS_WindU_IsbL-0700_RLatLon0.09_PT031H.grib2 2026-04-28 20:49 510K
20260428T18Z_MSC_RDPS_WindU_IsbL-0750_RLatLon0.09_PT031H.grib2 2026-04-28 20:49 535K
20260428T18Z_MSC_RDPS_WindU_IsbL-0800_RLatLon0.09_PT031H.grib2 2026-04-28 20:49 570K
20260428T18Z_MSC_RDPS_WindU_IsbL-0850_RLatLon0.09_PT031H.grib2 2026-04-28 20:49 614K
20260428T18Z_MSC_RDPS_WindU_IsbL-0875_RLatLon0.09_PT031H.grib2 2026-04-28 20:49 629K
20260428T18Z_MSC_RDPS_WindU_IsbL-0900_RLatLon0.09_PT031H.grib2 2026-04-28 20:49 640K
20260428T18Z_MSC_RDPS_WindU_IsbL-0925_RLatLon0.09_PT031H.grib2 2026-04-28 20:49 647K
20260428T18Z_MSC_RDPS_WindU_IsbL-0950_RLatLon0.09_PT031H.grib2 2026-04-28 20:49 644K
20260428T18Z_MSC_RDPS_WindU_IsbL-0970_RLatLon0.09_PT031H.grib2 2026-04-28 20:49 643K
20260428T18Z_MSC_RDPS_WindU_IsbL-0985_RLatLon0.09_PT031H.grib2 2026-04-28 20:49 779K
20260428T18Z_MSC_RDPS_WindU_IsbL-1000_RLatLon0.09_PT031H.grib2 2026-04-28 20:49 773K
20260428T18Z_MSC_RDPS_WindU_IsbL-1015_RLatLon0.09_PT031H.grib2 2026-04-28 20:49 766K
20260428T18Z_MSC_RDPS_WindV_AGL-10m_RLatLon0.09_PT031H.grib2 2026-04-28 20:49 426K
20260428T18Z_MSC_RDPS_WindV_AGL-120m_RLatLon0.09_PT031H.grib2 2026-04-28 20:49 524K
20260428T18Z_MSC_RDPS_WindV_AGL-40m_RLatLon0.09_PT031H.grib2 2026-04-28 20:49 527K
20260428T18Z_MSC_RDPS_WindV_AGL-80m_RLatLon0.09_PT031H.grib2 2026-04-28 20:49 525K
20260428T18Z_MSC_RDPS_WindV_IsbL-0001_RLatLon0.09_PT031H.grib2 2026-04-28 20:49 244K
20260428T18Z_MSC_RDPS_WindV_IsbL-0005_RLatLon0.09_PT031H.grib2 2026-04-28 20:49 289K
20260428T18Z_MSC_RDPS_WindV_IsbL-0010_RLatLon0.09_PT031H.grib2 2026-04-28 20:49 302K
20260428T18Z_MSC_RDPS_WindV_IsbL-0020_RLatLon0.09_PT031H.grib2 2026-04-28 20:49 318K
20260428T18Z_MSC_RDPS_WindV_IsbL-0030_RLatLon0.09_PT031H.grib2 2026-04-28 20:49 357K
20260428T18Z_MSC_RDPS_WindV_IsbL-0050_RLatLon0.09_PT031H.grib2 2026-04-28 20:49 346K
20260428T18Z_MSC_RDPS_WindV_IsbL-0100_RLatLon0.09_PT031H.grib2 2026-04-28 20:49 340K
20260428T18Z_MSC_RDPS_WindV_IsbL-0150_RLatLon0.09_PT031H.grib2 2026-04-28 20:49 406K
20260428T18Z_MSC_RDPS_WindV_IsbL-0175_RLatLon0.09_PT031H.grib2 2026-04-28 20:49 433K
20260428T18Z_MSC_RDPS_WindV_IsbL-0200_RLatLon0.09_PT031H.grib2 2026-04-28 20:49 348K
20260428T18Z_MSC_RDPS_WindV_IsbL-0225_RLatLon0.09_PT031H.grib2 2026-04-28 20:49 353K
20260428T18Z_MSC_RDPS_WindV_IsbL-0250_RLatLon0.09_PT031H.grib2 2026-04-28 20:49 379K
20260428T18Z_MSC_RDPS_WindV_IsbL-0275_RLatLon0.09_PT031H.grib2 2026-04-28 20:49 394K
20260428T18Z_MSC_RDPS_WindV_IsbL-0300_RLatLon0.09_PT031H.grib2 2026-04-28 20:49 388K
20260428T18Z_MSC_RDPS_WindV_IsbL-0350_RLatLon0.09_PT031H.grib2 2026-04-28 20:49 372K
20260428T18Z_MSC_RDPS_WindV_IsbL-0400_RLatLon0.09_PT031H.grib2 2026-04-28 20:49 372K
20260428T18Z_MSC_RDPS_WindV_IsbL-0450_RLatLon0.09_PT031H.grib2 2026-04-28 20:49 477K
20260428T18Z_MSC_RDPS_WindV_IsbL-0500_RLatLon0.09_PT031H.grib2 2026-04-28 20:49 478K
20260428T18Z_MSC_RDPS_WindV_IsbL-0550_RLatLon0.09_PT031H.grib2 2026-04-28 20:49 478K
20260428T18Z_MSC_RDPS_WindV_IsbL-0600_RLatLon0.09_PT031H.grib2 2026-04-28 20:49 486K
20260428T18Z_MSC_RDPS_WindV_IsbL-0650_RLatLon0.09_PT031H.grib2 2026-04-28 20:49 487K
20260428T18Z_MSC_RDPS_WindV_IsbL-0700_RLatLon0.09_PT031H.grib2 2026-04-28 20:49 507K
20260428T18Z_MSC_RDPS_WindV_IsbL-0750_RLatLon0.09_PT031H.grib2 2026-04-28 20:49 531K
20260428T18Z_MSC_RDPS_WindV_IsbL-0800_RLatLon0.09_PT031H.grib2 2026-04-28 20:49 565K
20260428T18Z_MSC_RDPS_WindV_IsbL-0850_RLatLon0.09_PT031H.grib2 2026-04-28 20:49 609K
20260428T18Z_MSC_RDPS_WindV_IsbL-0875_RLatLon0.09_PT031H.grib2 2026-04-28 20:49 761K
20260428T18Z_MSC_RDPS_WindV_IsbL-0900_RLatLon0.09_PT031H.grib2 2026-04-28 20:49 776K
20260428T18Z_MSC_RDPS_WindV_IsbL-0925_RLatLon0.09_PT031H.grib2 2026-04-28 20:49 785K
20260428T18Z_MSC_RDPS_WindV_IsbL-0950_RLatLon0.09_PT031H.grib2 2026-04-28 20:49 783K
20260428T18Z_MSC_RDPS_WindV_IsbL-0970_RLatLon0.09_PT031H.grib2 2026-04-28 20:49 784K
20260428T18Z_MSC_RDPS_WindV_IsbL-0985_RLatLon0.09_PT031H.grib2 2026-04-28 20:49 780K
20260428T18Z_MSC_RDPS_WindV_IsbL-1000_RLatLon0.09_PT031H.grib2 2026-04-28 20:49 774K
20260428T18Z_MSC_RDPS_WindV_IsbL-1015_RLatLon0.09_PT031H.grib2 2026-04-28 20:49 813K